Zurück zum Katalog

STARLINK-35175

AktivKommunikationVLEO
NORAD 65929·PAYLOAD·🇺🇸 United States

Gestartet Oct 8, 2025 von Vandenberg Space Force Base

Loading…

Nächste Überflüge (nächste 24 Stunden)

TLE

AktuellSource: CelesTrak SupGP

Epoche: Sep 14, 2026, 15:51 UTC

1 65929C 25225V   26257.66090278 -.00034086  00000+0 -10074-2 0  2570
2 65929  53.1606   6.7385 0001289  73.8179  56.0413 15.34398390    13

Verfolge STARLINK-35175 in Echtzeit mit AllMySat

Download on the App Store